SCP
0 0 0 0 0 0 0 0 0 0 0 0 0 0 0 0 0 0 0 0 0 0 0 0 0 0 0 0 0 0 0 0
0 0 0 0 0 0 0 0 0 0 0 0 0 0 0 0 0 0 0 0 0 0 0 0 0 0 0 0 0 0 0 0
0 0 0 0 0 0 0 0 0 0 0 0 0 0 0 0 0 0 0 0 0 0 0 0 0 0 0 0 0 0 0 0
0 0 0 0 0 0 0 0 0 0 0 0 0 0 0 0 0 0 0 0 0 0 0 0 0 0 0 0 0 0 0 0
0 0 0 0 0 0 0 0 0 0 0 0 0 0 0 0 0 0 0 0 0 0 0 0 0 0 0 0 0 0 0 0
0 0 0 0 0 0 0 0 0 0 0 0 0 0 0 0 0 0 0 0 0 0 0 0 0 0 0 0 0 0 0 0
0 0 0 0 0 0 0 0 0 0 0 0 0 0 0 0 0 0 0 0 0 0 0 0 0 0 0 0 0 0 0 -0
0 0 0 0 0 0 0 0 0 0 0 0 0 0 0 0 0 0 0 0 0 0 0 0 0 0 0 0 0 0 0 0
0 0 0 0 0 0 0 0 0 0 0 0 0 0 0 0 0 0 0 0 0 0 0 0 0 0 0 0 0 0 0 0
0 0 0 0 0 0 0 0 0 0 0 0 0 0 0 0 0 0 0 0 0 0 0 0 0 0 0 0 0 0 0 0
0 0 0 0 0 0 0 0 0 0 0 0 0 0 0 0 0 0 0 0 0 0 0 0 0 0 0 0 0 0 0 0
0 0 0 0 0 0 0 0 0 0 0 0 0 0 0 0 0 0 0 0 0 0 0 0 0 0 0 0 0 0 0 0
0 0 0 0 0 0 0 0 0 0 0 0 0 0 0 0 0 0 0 0 0 0 0 0 0 0 0 0 0 0 0 0
0 0 0 0 0 0 0 0 0 0 0 0 0 0 0 0 0 0 0 0 0 0 0 0 0 0 0 0 0 0 0 0
0 0 0 0 0 0 0 0 0 0 0 0 0 0 0 0 0 0 0 0 0 0 0 0 0 0 0 0 0 0 0 0
0 0 0 0 0 0 0 0 0 0 0 0 0 0 0 0 0 0 0 0 0 0 0 0 0 0 0 0 0 0 0 0
0 0 0 0 0 0 0 0 0 0 0 0 0 0 0 0 0 0 0 0 0 0 0 0 0 0 0 0 0 0 0 0
0 0 0 0 0 0 0 0 0 0 0 0 0 0 0 0 0 0 0 0 0 0 0 0 0 0 0 0 0 0 0 0
0 0 0 0 0 0 0 0 0 0 0 0 0 0 0 0 0 0 0 0 0 0 0 0 0 0 0 0 0 0 0 0
0 0 0 0 0 0 0 0 0 0 0 0 0 0 0 0 0 0 0 0 0 0 0 0 0 0 0 0 0 0 0 0
Wind_Speed_500mb
26 26 23 20 18 17 17 18 20 22 23 22 21 22 23 25 26 28 30 30 30 32 32 32 32 34 36 38 39 43 51 59
31 30 26 21 19 18 16 16 15 16 16 16 18 20 23 27 30 31 34 37 39 41 41 42 42 41 41 43 46 46 48 52
36 34 30 27 24 21 20 20 21 21 21 23 27 29 32 34 35 35 35 34 34 33 34 33 35 37 38 43 47 51 57 62
41 39 35 33 29 26 26 26 25 25 27 29 30 32 33 32 31 30 27 24 22 21 21 22 26 29 33 40 46 49 53 56
46 45 42 40 37 35 32 30 29 28 28 28 29 28 27 25 23 21 19 18 18 19 21 24 27 31 37 43 48 52 55 58
51 51 49 45 42 38 34 31 30 28 26 25 23 21 18 16 15 17 18 19 21 21 23 26 31 38 47 52 55 59 60 60
61 57 52 49 44 38 35 31 28 25 23 20 18 16 14 13 13 15 18 21 24 29 36 40 42 48 54 59 63 63 66 71
73 63 55 50 46 38 34 30 27 24 20 17 15 13 13 15 17 22 26 30 34 37 41 43 45 50 56 60 62 64 66 69
76 62 58 53 43 38 33 28 25 22 18 15 12 11 13 19 23 27 31 35 38 40 41 43 46 52 57 60 62 63 65 67
70 65 57 50 44 36 30 26 22 18 16 13 11 12 15 20 26 29 31 33 35 40 41 45 44 48 55 60 64 66 68 68
67 59 50 45 38 33 29 25 22 18 15 12 11 14 18 23 28 34 38 39 43 43 44 45 47 49 54 56 63 68 71 70
53 50 47 41 35 32 27 24 18 14 11 9 11 15 19 24 29 34 38 41 44 45 46 45 48 50 55 53 59 65 72 76
51 48 41 36 33 29 26 21 16 13 10 11 13 18 23 26 31 34 39 43 45 46 47 45 47 52 51 54 52 57 62 73
44 43 39 35 34 30 25 19 14 10 11 13 16 19 25 29 32 35 39 42 43 45 46 49 53 55 54 59 56 60 62 72
45 40 38 36 31 27 22 16 12 11 13 16 20 23 27 30 33 35 38 39 42 46 49 56 58 55 60 61 72 64 70 77
40 39 36 33 29 24 18 13 10 12 16 19 24 27 30 32 33 34 36 38 43 44 48 54 60 56 56 54 63 65 67 71
43 39 35 29 24 18 14 11 13 16 20 25 29 33 35 36 34 35 37 38 41 44 49 53 54 55 57 51 56 59 64 72
40 35 30 25 20 14 13 15 17 20 24 28 32 34 36 38 42 46 39 43 44 46 51 55 61 62 58 56 61 64 65 69
34 30 25 21 18 18 18 18 21 24 28 30 33 35 38 40 43 46 51 55 54 51 54 56 59 62 59 58 66 66 63 65
31 28 25 23 20 18 20 22 24 27 30 32 34 36 37 40 42 45 49 54 59 61 56 57 58 59 57 58 59 64 66 68
Wind_Direction_500mb
203 212 216 225 238 249 261 271 280 288 292 296 301 304 305 304 302 303 305 304 306 310 312 312 311 311 311 308 304 295 284 281
208 215 220 230 241 252 259 269 278 285 293 300 302 307 308 305 305 305 303 301 299 300 301 303 304 307 309 310 304 303 300 298
209 216 222 231 238 249 261 270 274 277 281 285 289 292 293 293 294 295 297 299 303 306 309 312 315 318 316 312 311 310 310 307
211 217 224 234 242 247 258 266 271 276 281 286 291 295 297 298 299 299 302 307 314 321 332 343 347 344 340 335 332 329 325 322
214 217 223 230 237 243 252 259 266 274 281 286 290 293 296 300 306 313 324 332 338 344 349 351 350 340 336 334 333 332 330 329
215 219 222 227 232 239 247 255 264 270 277 286 293 296 299 308 319 328 336 344 346 346 346 348 347 343 338 335 335 332 330 330
217 219 221 224 227 235 244 253 261 269 277 284 290 296 304 317 331 339 344 348 350 350 353 354 350 345 340 338 336 334 332 329
218 219 220 223 226 231 240 248 256 264 271 276 282 294 313 329 340 345 348 350 351 350 349 349 345 339 336 335 334 331 329 327
221 217 218 222 223 228 232 237 244 252 260 267 276 297 324 337 344 347 346 347 346 344 342 341 339 335 333 332 329 326 326 327
218 217 217 216 219 223 225 230 237 243 249 260 279 305 324 334 338 340 340 340 340 337 334 333 331 329 328 328 325 325 324 326
212 211 210 211 214 217 219 221 224 231 240 258 291 319 330 335 337 337 338 339 337 336 333 333 329 331 330 333 331 329 327 329
205 204 205 205 206 207 207 210 211 220 241 276 304 321 328 333 335 335 334 334 332 330 329 327 323 326 327 328 329 328 326 325
192 196 202 200 198 200 199 204 209 226 254 288 312 324 325 327 330 329 328 327 327 325 325 323 320 326 325 326 332 330 324 321
194 194 194 193 193 193 195 201 215 243 273 293 309 317 321 325 326 326 326 325 325 325 324 322 323 328 322 329 329 328 324 321
194 190 187 185 187 191 196 207 226 257 283 303 313 320 322 323 325 327 325 323 323 323 320 320 322 325 323 331 325 327 323 323
193 188 185 184 188 194 204 223 252 283 298 309 314 317 320 322 324 324 323 323 323 322 319 319 320 323 323 326 325 327 322 320
192 190 185 188 195 204 223 249 277 293 307 315 317 319 319 319 318 320 320 320 318 317 316 316 316 315 323 321 323 323 325 322
189 189 189 194 204 221 246 267 285 298 305 309 311 312 314 317 319 318 315 316 317 317 317 316 314 317 321 321 321 324 324 323
189 191 200 208 223 240 259 278 290 298 303 306 308 312 315 316 317 317 318 319 320 318 318 318 318 319 322 323 322 323 325 325
196 204 215 225 236 252 270 282 292 298 302 306 307 308 309 311 313 316 316 316 317 320 322 321 320 321 326 327 326 326 327 327
Wind_Speed_850mb
26 26 23 20 18 17 17 18 20 22 23 22 21 22 23 25 26 28 30 30 30 32 32 32 32 34 36 38 39 43 51 59
31 30 26 21 19 18 16 16 15 16 16 16 18 20 23 27 30 31 34 37 39 41 41 42 42 41 41 43 46 46 48 52
36 34 30 27 24 21 20 20 21 21 21 23 27 29 32 34 35 35 35 34 34 33 34 33 35 37 38 43 47 51 57 62
41 39 35 33 29 26 26 26 25 25 27 29 30 32 33 32 31 30 27 24 22 21 21 22 26 29 33 40 46 49 53 56
46 45 42 40 37 35 32 30 29 28 28 28 29 28 27 25 23 21 19 18 18 19 21 24 27 31 37 43 48 52 55 58
51 51 49 45 42 38 34 31 30 28 26 25 23 21 18 16 15 17 18 19 21 21 23 26 31 38 47 52 55 59 60 60
61 57 52 49 44 38 35 31 28 25 23 20 18 16 14 13 13 15 18 21 24 29 36 40 42 48 54 59 63 63 66 71
73 63 55 50 46 38 34 30 27 24 20 17 15 13 13 15 17 22 26 30 34 37 41 43 45 50 56 60 62 64 66 69
76 62 58 53 43 38 33 28 25 22 18 15 12 11 13 19 23 27 31 35 38 40 41 43 46 52 57 60 62 63 65 67
70 65 57 50 44 36 30 26 22 18 16 13 11 12 15 20 26 29 31 33 35 40 41 45 44 48 55 60 64 66 68 68
67 59 50 45 38 33 29 25 22 18 15 12 11 14 18 23 28 34 38 39 43 43 44 45 47 49 54 56 63 68 71 70
53 50 47 41 35 32 27 24 18 14 11 9 11 15 19 24 29 34 38 41 44 45 46 45 48 50 55 53 59 65 72 76
51 48 41 36 33 29 26 21 16 13 10 11 13 18 23 26 31 34 39 43 45 46 47 45 47 52 51 54 52 57 62 73
44 43 39 35 34 30 25 19 14 10 11 13 16 19 25 29 32 35 39 42 43 45 46 49 53 55 54 59 56 60 62 72
45 40 38 36 31 27 22 16 12 11 13 16 20 23 27 30 33 35 38 39 42 46 49 56 58 55 60 61 72 64 70 77
40 39 36 33 29 24 18 13 10 12 16 19 24 27 30 32 33 34 36 38 43 44 48 54 60 56 56 54 63 65 67 71
43 39 35 29 24 18 14 11 13 16 20 25 29 33 35 36 34 35 37 38 41 44 49 53 54 55 57 51 56 59 64 72
40 35 30 25 20 14 13 15 17 20 24 28 32 34 36 38 42 46 39 43 44 46 51 55 61 62 58 56 61 64 65 69
34 30 25 21 18 18 18 18 21 24 28 30 33 35 38 40 43 46 51 55 54 51 54 56 59 62 59 58 66 66 63 65
31 28 25 23 20 18 20 22 24 27 30 32 34 36 37 40 42 45 49 54 59 61 56 57 58 59 57 58 59 64 66 68
Wind_Direction_850mb
203 212 216 225 238 249 261 271 280 288 292 296 301 304 305 304 302 303 305 304 306 310 312 312 311 311 311 308 304 295 284 281
208 215 220 230 241 252 259 269 278 285 293 300 302 307 308 305 305 305 303 301 299 300 301 303 304 307 309 310 304 303 300 298
209 216 222 231 238 249 261 270 274 277 281 285 289 292 293 293 294 295 297 299 303 306 309 312 315 318 316 312 311 310 310 307
211 217 224 234 242 247 258 266 271 276 281 286 291 295 297 298 299 299 302 307 314 321 332 343 347 344 340 335 332 329 325 322
214 217 223 230 237 243 252 259 266 274 281 286 290 293 296 300 306 313 324 332 338 344 349 351 350 340 336 334 333 332 330 329
215 219 222 227 232 239 247 255 264 270 277 286 293 296 299 308 319 328 336 344 346 346 346 348 347 343 338 335 335 332 330 330
217 219 221 224 227 235 244 253 261 269 277 284 290 296 304 317 331 339 344 348 350 350 353 354 350 345 340 338 336 334 332 329
218 219 220 223 226 231 240 248 256 264 271 276 282 294 313 329 340 345 348 350 351 350 349 349 345 339 336 335 334 331 329 327
221 217 218 222 223 228 232 237 244 252 260 267 276 297 324 337 344 347 346 347 346 344 342 341 339 335 333 332 329 326 326 327
218 217 217 216 219 223 225 230 237 243 249 260 279 305 324 334 338 340 340 340 340 337 334 333 331 329 328 328 325 325 324 326
212 211 210 211 214 217 219 221 224 231 240 258 291 319 330 335 337 337 338 339 337 336 333 333 329 331 330 333 331 329 327 329
205 204 205 205 206 207 207 210 211 220 241 276 304 321 328 333 335 335 334 334 332 330 329 327 323 326 327 328 329 328 326 325
192 196 202 200 198 200 199 204 209 226 254 288 312 324 325 327 330 329 328 327 327 325 325 323 320 326 325 326 332 330 324 321
194 194 194 193 193 193 195 201 215 243 273 293 309 317 321 325 326 326 326 325 325 325 324 322 323 328 322 329 329 328 324 321
194 190 187 185 187 191 196 207 226 257 283 303 313 320 322 323 325 327 325 323 323 323 320 320 322 325 323 331 325 327 323 323
193 188 185 184 188 194 204 223 252 283 298 309 314 317 320 322 324 324 323 323 323 322 319 319 320 323 323 326 325 327 322 320
192 190 185 188 195 204 223 249 277 293 307 315 317 319 319 319 318 320 320 320 318 317 316 316 316 315 323 321 323 323 325 322
189 189 189 194 204 221 246 267 285 298 305 309 311 312 314 317 319 318 315 316 317 317 317 316 314 317 321 321 321 324 324 323
189 191 200 208 223 240 259 278 290 298 303 306 308 312 315 316 317 317 318 319 320 318 318 318 318 319 322 323 322 323 325 325
196 204 215 225 236 252 270 282 292 298 302 306 307 308 309 311 313 316 316 316 317 320 322 321 320 321 326 327 326 326 327 327